| time (UTC) | temp F | wind direction | speed MPH | gust MPH | rain 1hr in | rain 24hr in | rain mn in | humidity % | barometer mb |
| 20260505073851 | 69 | 195 | 9.0 | 13.0 | 0.00 | 0.00 | 0.00 | 91 | 1004.7 |
| 20260505073350 | 69 | 178 | 11.0 | 16.0 | 0.00 | 0.00 | 0.00 | 91 | 1004.5 |
| 20260505072847 | 69 | 192 | 12.0 | 16.0 | 0.00 | 0.00 | 0.00 | 90 | 1004.9 |
| 20260505072343 | 69 | 165 | 10.0 | 11.0 | 0.00 | 0.00 | 0.00 | 90 | 1004.9 |
| 20260505071839 | 69 | 185 | 12.0 | 15.0 | 0.00 | 0.00 | 0.00 | 90 | 1005.0 |
| 20260505071335 | 69 | 142 | 13.0 | 16.0 | 0.00 | 0.00 | 0.00 | 90 | 1005.2 |
| 20260505070834 | 70 | 190 | 10.0 | 15.0 | 0.00 | 0.00 | 0.00 | 89 | 1005.2 |
| 20260505070330 | 70 | 155 | 12.0 | 14.0 | 0.00 | 0.00 | 0.00 | 89 | 1005.3 |
| 20260505065825 | 70 | 211 | 8.0 | 11.0 | 0.00 | 0.00 | 0.00 | 89 | 1005.2 |
| 20260505065322 | 70 | 200 | 9.0 | 11.0 | 0.00 | 0.00 | 0.00 | 88 | 1005.4 |
| 20260505064819 | 70 | 189 | 5.0 | 8.0 | 0.00 | 0.00 | 0.00 | 88 | 1005.3 |
| 20260505064316 | 71 | 198 | 9.0 | 11.0 | 0.00 | 0.00 | 0.00 | 88 | 1005.7 |
| 20260505063814 | 71 | 172 | 9.0 | 11.0 | 0.00 | 0.00 | 0.00 | 87 | 1005.7 |
| 20260505063310 | 71 | 201 | 8.0 | 10.0 | 0.00 | 0.00 | 0.00 | 87 | 1005.2 |
| 20260505062807 | 71 | 194 | 10.0 | 13.0 | 0.00 | 0.00 | 0.00 | 87 | 1005.4 |
| 20260505062304 | 71 | 196 | 10.0 | 13.0 | 0.00 | 0.00 | 0.00 | 87 | 1005.9 |
| 20260505061801 | 71 | 208 | 10.0 | 11.0 | 0.00 | 0.00 | 0.00 | 86 | 1005.7 |
| 20260505061259 | 71 | 204 | 14.0 | 21.0 | 0.00 | 0.00 | 0.00 | 86 | 1005.5 |
| 20260505060756 | 71 | 206 | 11.0 | 13.0 | 0.00 | 0.00 | 0.00 | 86 | 1005.5 |
| 20260505060253 | 71 | 201 | 12.0 | 17.0 | 0.00 | 0.00 | 0.00 | 86 | 1005.5 |
| 20260505055749 | 71 | 204 | 14.0 | 16.0 | 0.00 | 0.00 | 0.00 | 85 | 1005.5 |
| 20260505055245 | 71 | 194 | 9.0 | 13.0 | 0.00 | 0.00 | 0.00 | 85 | 1005.7 |
| 20260505054742 | 71 | 198 | 12.0 | 15.0 | 0.00 | 0.00 | 0.00 | 85 | 1005.4 |
| 20260505054240 | 72 | 223 | 14.0 | 18.0 | 0.00 | 0.00 | 0.00 | 84 | 1005.4 |
| 20260505053738 | 72 | 207 | 11.0 | 16.0 | 0.00 | 0.00 | 0.00 | 84 | 1005.7 |
| 20260505053234 | 72 | 188 | 12.0 | 14.0 | 0.00 | 0.00 | 0.00 | 83 | 1005.8 |
| 20260505052731 | 72 | 184 | 12.0 | 18.0 | 0.00 | 0.00 | 0.00 | 83 | 1005.9 |
| 20260505052228 | 72 | 222 | 10.0 | 11.0 | 0.00 | 0.00 | 0.00 | 83 | 1005.8 |
| 20260505051725 | 72 | 154 | 10.0 | 13.0 | 0.00 | 0.00 | 0.00 | 82 | 1005.8 |
| 20260505051223 | 72 | 176 | 11.0 | 13.0 | 0.00 | 0.00 | 0.00 | 82 | 1005.7 |
| 20260505050721 | 72 | 189 | 13.0 | 17.0 | 0.00 | 0.00 | 0.00 | 82 | 1006.1 |
| 20260505050219 | 73 | 184 | 13.0 | 18.0 | 0.00 | 0.00 | 0.00 | 81 | 1005.8 |
| 20260505041649 | 73 | 214 | 9.0 | 13.0 | 0.00 | 0.00 | 0.00 | 80 | 1006.0 |
| 20260505041146 | 73 | 178 | 7.0 | 9.0 | 0.00 | 0.00 | 0.00 | 79 | 1006.3 |
| 20260505040643 | 73 | 169 | 5.0 | 9.0 | 0.00 | 0.00 | 0.00 | 80 | 1006.3 |
| 20260505040140 | 73 | 190 | 8.0 | 9.0 | 0.00 | 0.00 | 0.00 | 79 | 1006.2 |
| 20260505035636 | 73 | 179 | 13.0 | 17.0 | 0.00 | 0.00 | 0.00 | 79 | 1006.1 |
| 20260505035133 | 73 | 174 | 5.0 | 9.0 | 0.00 | 0.00 | 0.00 | 79 | 1006.0 |
| 20260505034629 | 73 | 178 | 6.0 | 8.0 | 0.00 | 0.00 | 0.00 | 79 | 1006.3 |
| 20260505034127 | 73 | 192 | 6.0 | 7.0 | 0.00 | 0.00 | 0.00 | 79 | 1006.0 |
| 20260505033623 | 73 | 171 | 5.0 | 7.0 | 0.00 | 0.00 | 0.00 | 79 | 1006.1 |
| 20260505033122 | 73 | 203 | 7.0 | 10.0 | 0.00 | 0.00 | 0.00 | 79 | 1006.2 |
| 20260505032619 | 73 | 158 | 9.0 | 10.0 | 0.00 | 0.00 | 0.00 | 79 | 1006.2 |
| 20260505032115 | 73 | 192 | 2.0 | 4.0 | 0.00 | 0.00 | 0.00 | 79 | 1006.1 |
| 20260505031613 | 73 | 190 | 9.0 | 14.0 | 0.00 | 0.00 | 0.00 | 79 | 1006.3 |
| 20260505031109 | 73 | 186 | 9.0 | 11.0 | 0.00 | 0.00 | 0.00 | 79 | 1006.4 |
| 20260505030606 | 73 | 201 | 5.0 | 8.0 | 0.00 | 0.00 | 0.00 | 79 | 1006.6 |
| 20260505025557 | 73 | 194 | 3.0 | 4.0 | 0.00 | 0.00 | 0.00 | 79 | 1006.1 |
| 20260505025057 | 73 | 202 | 8.0 | 9.0 | 0.00 | 0.00 | 0.00 | 78 | 1006.2 |
| 20260505024553 | 73 | 175 | 7.0 | 11.0 | 0.00 | 0.00 | 0.00 | 78 | 1005.9 |
| 20260505024051 | 73 | 190 | 9.0 | 10.0 | 0.00 | 0.00 | 0.00 | 78 | 1006.1 |
| 20260505023548 | 73 | 190 | 7.0 | 9.0 | 0.00 | 0.00 | 0.00 | 78 | 1005.8 |
| 20260505023045 | 73 | 201 | 6.0 | 8.0 | 0.00 | 0.00 | 0.00 | 78 | 1005.9 |
| 20260505022543 | 74 | 119 | 6.0 | 9.0 | 0.00 | 0.00 | 0.00 | 78 | 1005.9 |
| 20260505022040 | 74 | 126 | 8.0 | 11.0 | 0.00 | 0.00 | 0.00 | 77 | 1006.0 |
| 20260505021536 | 74 | 214 | 9.0 | 11.0 | 0.00 | 0.00 | 0.00 | 77 | 1005.9 |
| 20260505021032 | 74 | 184 | 6.0 | 8.0 | 0.00 | 0.00 | 0.00 | 77 | 1005.8 |
| 20260505020527 | 74 | 142 | 7.0 | 8.0 | 0.00 | 0.00 | 0.00 | 77 | 1005.9 |
| 20260505020024 | 74 | 139 | 5.0 | 7.0 | 0.00 | 0.00 | 0.00 | 77 | 1005.7 |
| 20260505015521 | 74 | 113 | 9.0 | 10.0 | 0.00 | 0.00 | 0.00 | 77 | 1005.9 |
| 20260505015018 | 74 | 186 | 5.0 | 6.0 | 0.00 | 0.00 | 0.00 | 76 | 1005.9 |
| 20260505014515 | 74 | 168 | 4.0 | 7.0 | 0.00 | 0.00 | 0.00 | 76 | 1005.8 |
| 20260505014012 | 74 | 150 | 4.0 | 6.0 | 0.00 | 0.00 | 0.00 | 76 | 1005.8 |
| 20260505013509 | 74 | 168 | 6.0 | 9.0 | 0.00 | 0.00 | 0.00 | 76 | 1006.0 |
| 20260505013007 | 74 | 159 | 4.0 | 6.0 | 0.00 | 0.00 | 0.00 | 75 | 1005.7 |
| 20260505012505 | 74 | 157 | 8.0 | 11.0 | 0.00 | 0.00 | 0.00 | 75 | 1006.0 |
| 20260505012001 | 74 | 188 | 4.0 | 8.0 | 0.00 | 0.00 | 0.00 | 76 | 1005.9 |
| 20260505011457 | 74 | 192 | 1.0 | 6.0 | 0.00 | 0.00 | 0.00 | 75 | 1005.9 |
| 20260505010954 | 75 | 195 | 6.0 | 7.0 | 0.00 | 0.00 | 0.00 | 75 | 1006.0 |
| 20260505010450 | 75 | 144 | 4.0 | 6.0 | 0.00 | 0.00 | 0.00 | 75 | 1005.8 |
| 20260505005946 | 75 | 175 | 3.0 | 3.0 | 0.00 | 0.00 | 0.00 | 74 | 1005.4 |
| 20260505005443 | 75 | 192 | 9.0 | 13.0 | 0.00 | 0.00 | 0.00 | 73 | 1006.1 |
| 20260505004941 | 75 | 197 | 7.0 | 9.0 | 0.00 | 0.00 | 0.00 | 73 | 1006.0 |
| 20260505004437 | 75 | 168 | 7.0 | 8.0 | 0.00 | 0.00 | 0.00 | 73 | 1006.0 |
| 20260505003934 | 75 | 198 | 6.0 | 11.0 | 0.00 | 0.00 | 0.00 | 72 | 1006.0 |
| 20260505003431 | 76 | 168 | 5.0 | 8.0 | 0.00 | 0.00 | 0.00 | 73 | 1006.1 |
| 20260505002927 | 76 | 129 | 8.0 | 13.0 | 0.00 | 0.00 | 0.00 | 72 | 1006.2 |
| 20260505002423 | 76 | 186 | 6.0 | 8.0 | 0.00 | 0.00 | 0.00 | 72 | 1006.2 |
| 20260505001922 | 76 | 202 | 10.0 | 11.0 | 0.00 | 0.00 | 0.00 | 72 | 1006.2 |
| 20260505001419 | 76 | 178 | 9.0 | 11.0 | 0.00 | 0.00 | 0.00 | 72 | 1006.3 |
| 20260505000916 | 76 | 191 | 6.0 | 9.0 | 0.00 | 0.00 | 0.00 | 72 | 1006.4 |
| 20260505000414 | 76 | 164 | 6.0 | 7.0 | 0.00 | 0.00 | 0.00 | 72 | 1006.5 |
| 20260504235911 | 77 | 169 | 1.0 | 2.0 | 0.00 | 0.00 | 0.00 | 71 | 1006.4 |
| 20260504235408 | 77 | 189 | 4.0 | 7.0 | 0.00 | 0.00 | 0.00 | 71 | 1006.3 |
| 20260504234904 | 77 | 188 | 5.0 | 7.0 | 0.00 | 0.00 | 0.00 | 70 | 1006.3 |
| 20260504234402 | 77 | 194 | 7.0 | 9.0 | 0.00 | 0.00 | 0.00 | 70 | 1006.3 |
| 20260504233858 | 77 | 154 | 8.0 | 9.0 | 0.00 | 0.00 | 0.00 | 70 | 1006.5 |
| 20260504233354 | 77 | 199 | 8.0 | 9.0 | 0.00 | 0.00 | 0.00 | 69 | 1006.5 |
| 20260504232850 | 77 | 188 | 9.0 | 10.0 | 0.00 | 0.00 | 0.00 | 69 | 1006.5 |
| 20260504232348 | 77 | 195 | 10.0 | 15.0 | 0.00 | 0.00 | 0.00 | 68 | 1006.6 |
| 20260504231844 | 78 | 158 | 12.0 | 16.0 | 0.00 | 0.00 | 0.00 | 69 | 1006.6 |
| 20260504231341 | 78 | 203 | 6.0 | 7.0 | 0.00 | 0.00 | 0.00 | 69 | 1006.8 |
| 20260504230837 | 77 | 158 | 11.0 | 15.0 | 0.00 | 0.00 | 0.00 | 69 | 1006.7 |
| 20260504230335 | 77 | 194 | 8.0 | 10.0 | 0.00 | 0.00 | 0.00 | 70 | 1006.7 |
| 20260504225834 | 77 | 152 | 8.0 | 10.0 | 0.00 | 0.00 | 0.00 | 69 | 1006.8 |
| 20260504225330 | 77 | 159 | 3.0 | 4.0 | 0.00 | 0.00 | 0.00 | 70 | 1006.9 |
| 20260504224827 | 78 | 162 | 7.0 | 8.0 | 0.00 | 0.00 | 0.00 | 69 | 1007.1 |
| 20260504224324 | 78 | 162 | 6.0 | 8.0 | 0.00 | 0.00 | 0.00 | 68 | 1007.0 |
| 20260504223821 | 78 | 196 | 9.0 | 13.0 | 0.00 | 0.00 | 0.00 | 68 | 1007.0 |
| 20260504223316 | 78 | 191 | 9.0 | 11.0 | 0.00 | 0.00 | 0.00 | 68 | 1006.9 |
| 20260504222813 | 78 | 183 | 10.0 | 13.0 | 0.00 | 0.00 | 0.00 | 67 | 1007.0 |
| 20260504222310 | 79 | 136 | 10.0 | 15.0 | 0.00 | 0.00 | 0.00 | 67 | 1007.1 |
| 20260504221809 | 78 | 180 | 5.0 | 9.0 | 0.00 | 0.00 | 0.00 | 68 | 1006.9 |
| 20260504221305 | 78 | 212 | 16.0 | 21.0 | 0.00 | 0.00 | 0.00 | 67 | 1006.9 |
| 20260504220802 | 78 | 189 | 9.0 | 11.0 | 0.00 | 0.00 | 0.00 | 68 | 1007.3 |
| 20260504220258 | 78 | 163 | 6.0 | 8.0 | 0.00 | 0.00 | 0.00 | 68 | 1007.6 |
| 20260504215756 | 79 | 189 | 9.0 | 10.0 | 0.00 | 0.00 | 0.00 | 67 | 1007.4 |
| 20260504215252 | 80 | 201 | 10.0 | 13.0 | 0.00 | 0.00 | 0.00 | 66 | 1007.3 |
| 20260504214748 | 79 | 213 | 2.0 | 6.0 | 0.00 | 0.00 | 0.00 | 68 | 1007.3 |
| 20260504214245 | 78 | 190 | 9.0 | 13.0 | 0.00 | 0.00 | 0.00 | 66 | 1007.4 |
| 20260504213742 | 78 | 181 | 9.0 | 11.0 | 0.00 | 0.00 | 0.00 | 67 | 1007.3 |
| 20260504213238 | 79 | 156 | 10.0 | 11.0 | 0.00 | 0.00 | 0.00 | 66 | 1007.4 |
| 20260504212735 | 79 | 171 | 9.0 | 10.0 | 0.00 | 0.00 | 0.00 | 66 | 1007.5 |
| 20260504212231 | 79 | 204 | 9.0 | 17.0 | 0.00 | 0.00 | 0.00 | 66 | 1007.8 |
| 20260504211729 | 78 | 193 | 14.0 | 17.0 | 0.00 | 0.00 | 0.00 | 67 | 1007.9 |
| 20260504211225 | 78 | 191 | 8.0 | 11.0 | 0.00 | 0.00 | 0.00 | 67 | 1007.9 |
| 20260504210723 | 78 | 196 | 12.0 | 17.0 | 0.00 | 0.00 | 0.00 | 67 | 1008.1 |
| 20260504210220 | 79 | 170 | 11.0 | 15.0 | 0.00 | 0.00 | 0.00 | 66 | 1008.1 |
| 20260504205717 | 79 | 193 | 10.0 | 14.0 | 0.00 | 0.00 | 0.00 | 66 | 1008.0 |
| 20260504205215 | 80 | 129 | 6.0 | 10.0 | 0.00 | 0.00 | 0.00 | 66 | 1008.2 |
| 20260504204712 | 79 | 209 | 8.0 | 9.0 | 0.00 | 0.00 | 0.00 | 66 | 1008.2 |
| 20260504204211 | 79 | 197 | 9.0 | 10.0 | 0.00 | 0.00 | 0.00 | 66 | 1008.4 |
| 20260504203709 | 79 | 164 | 12.0 | 16.0 | 0.00 | 0.00 | 0.00 | 65 | 1008.3 |
| 20260504203206 | 78 | 179 | 5.0 | 6.0 | 0.00 | 0.00 | 0.00 | 66 | 1008.6 |
| 20260504202701 | 79 | 179 | 4.0 | 6.0 | 0.00 | 0.00 | 0.00 | 66 | 1008.7 |
| 20260504202158 | 79 | 196 | 10.0 | 14.0 | 0.00 | 0.00 | 0.00 | 65 | 1008.7 |
| 20260504201655 | 79 | 197 | 9.0 | 16.0 | 0.00 | 0.00 | 0.00 | 65 | 1008.8 |
| 20260504201152 | 79 | 199 | 9.0 | 10.0 | 0.00 | 0.00 | 0.00 | 65 | 1009.1 |
| 20260504200650 | 79 | 230 | 6.0 | 9.0 | 0.00 | 0.00 | 0.00 | 65 | 1009.2 |
| 20260504200146 | 78 | 180 | 4.0 | 7.0 | 0.00 | 0.00 | 0.00 | 66 | 1009.4 |
| 20260504195642 | 79 | 175 | 9.0 | 10.0 | 0.00 | 0.00 | 0.00 | 65 | 1009.3 |
| 20260504195138 | 78 | 182 | 8.0 | 9.0 | 0.00 | 0.00 | 0.00 | 66 | 1009.7 |
| 20260504194635 | 78 | 181 | 13.0 | 15.0 | 0.00 | 0.00 | 0.00 | 64 | 1009.7 |
| 20260504194131 | 78 | 203 | 8.0 | 9.0 | 0.00 | 0.00 | 0.00 | 66 | 1009.5 |
| 20260504193628 | 78 | 196 | 11.0 | 14.0 | 0.00 | 0.00 | 0.00 | 64 | 1009.5 |
| 20260504193126 | 78 | 199 | 13.0 | 15.0 | 0.00 | 0.00 | 0.00 | 65 | 1009.7 |
| 20260504192624 | 78 | 165 | 8.0 | 10.0 | 0.00 | 0.00 | 0.00 | 65 | 1009.7 |
| 20260504192121 | 78 | 196 | 16.0 | 21.0 | 0.00 | 0.00 | 0.00 | 64 | 1009.6 |
| 20260504191620 | 78 | 208 | 6.0 | 9.0 | 0.00 | 0.00 | 0.00 | 65 | 1009.6 |
| 20260504191116 | 78 | 199 | 10.0 | 13.0 | 0.00 | 0.00 | 0.00 | 65 | 1009.9 |
| 20260504190612 | 78 | 196 | 9.0 | 11.0 | 0.00 | 0.00 | 0.00 | 66 | 1010.5 |
| 20260504190109 | 77 | 193 | 9.0 | 11.0 | 0.00 | 0.00 | 0.00 | 66 | 1010.2 |
| 20260504185605 | 77 | 209 | 6.0 | 8.0 | 0.00 | 0.00 | 0.00 | 66 | 1010.3 |
| 20260504185102 | 77 | 192 | 11.0 | 16.0 | 0.00 | 0.00 | 0.00 | 66 | 1010.3 |
| 20260504184557 | 77 | 189 | 10.0 | 11.0 | 0.00 | 0.00 | 0.00 | 67 | 1010.3 |
| 20260504184053 | 77 | 196 | 11.0 | 13.0 | 0.00 | 0.00 | 0.00 | 66 | 1010.4 |
| 20260504183550 | 77 | 178 | 10.0 | 11.0 | 0.00 | 0.00 | 0.00 | 65 | 1010.6 |
| 20260504183048 | 76 | 161 | 11.0 | 13.0 | 0.00 | 0.00 | 0.00 | 66 | 1010.6 |
| 20260504182545 | 76 | 170 | 12.0 | 16.0 | 0.00 | 0.00 | 0.00 | 65 | 1010.8 |
| 20260504182042 | 77 | 194 | 10.0 | 13.0 | 0.00 | 0.00 | 0.00 | 65 | 1010.5 |
| 20260504181539 | 77 | 194 | 11.0 | 15.0 | 0.00 | 0.00 | 0.00 | 65 | 1010.8 |
| 20260504181037 | 76 | 188 | 6.0 | 8.0 | 0.00 | 0.00 | 0.00 | 68 | 1010.7 |
| 20260504180536 | 76 | 211 | 16.0 | 18.0 | 0.00 | 0.00 | 0.00 | 65 | 1010.8 |
| 20260504180034 | 76 | 208 | 11.0 | 15.0 | 0.00 | 0.00 | 0.00 | 66 | 1010.9 |
| 20260504175531 | 76 | 211 | 11.0 | 15.0 | 0.00 | 0.00 | 0.00 | 65 | 1011.0 |
| 20260504175028 | 76 | 195 | 11.0 | 15.0 | 0.00 | 0.00 | 0.00 | 67 | 1011.0 |
| 20260504174526 | 75 | 186 | 6.0 | 11.0 | 0.00 | 0.00 | 0.00 | 67 | 1011.0 |
| 20260504174023 | 75 | 197 | 11.0 | 14.0 | 0.00 | 0.00 | 0.00 | 67 | 1011.1 |
| 20260504173519 | 75 | 184 | 10.0 | 13.0 | 0.00 | 0.00 | 0.00 | 66 | 1011.2 |
| 20260504173017 | 75 | 192 | 14.0 | 15.0 | 0.00 | 0.00 | 0.00 | 66 | 1011.0 |
| 20260504172513 | 75 | 194 | 5.0 | 8.0 | 0.00 | 0.00 | 0.00 | 68 | 1011.3 |
| 20260504172009 | 75 | 192 | 8.0 | 10.0 | 0.00 | 0.00 | 0.00 | 66 | 1011.4 |
| 20260504171507 | 74 | 161 | 7.0 | 10.0 | 0.00 | 0.00 | 0.00 | 66 | 1011.5 |
| 20260504171003 | 74 | 199 | 6.0 | 10.0 | 0.00 | 0.00 | 0.00 | 67 | 1011.7 |
| 20260504170500 | 74 | 147 | 6.0 | 10.0 | 0.00 | 0.00 | 0.00 | 65 | 1011.7 |
| 20260504160420 | 71 | 177 | 14.0 | 18.0 | 0.00 | 0.00 | 0.00 | 67 | 1012.4 |
| 20260504150843 | 69 | 210 | 9.0 | 16.0 | 0.00 | 0.00 | 0.00 | 72 | 1013.0 |
| 20260504150340 | 69 | 198 | 15.0 | 17.0 | 0.00 | 0.00 | 0.00 | 72 | 1012.9 |
| 20260504141310 | 67 | 194 | 9.0 | 11.0 | 0.00 | 0.00 | 0.00 | 75 | 1013.0 |
| 20260504140806 | 66 | 175 | 10.0 | 13.0 | 0.00 | 0.00 | 0.00 | 75 | 1013.2 |
| 20260504140302 | 66 | 186 | 9.0 | 13.0 | 0.00 | 0.00 | 0.00 | 76 | 1013.2 |
| 20260504130731 | 63 | 192 | 3.0 | 6.0 | 0.00 | 0.00 | 0.00 | 80 | 1013.0 |
| 20260504130227 | 62 | 184 | 6.0 | 7.0 | 0.00 | 0.00 | 0.00 | 80 | 1012.9 |
| 20260504120151 | 60 | 186 | 5.0 | 6.0 | 0.00 | 0.00 | 0.00 | 84 | 1012.3 |
| 20260504110618 | 59 | 185 | 5.0 | 7.0 | 0.00 | 0.00 | 0.00 | 85 | 1012.7 |
| 20260504110114 | 59 | 190 | 7.0 | 8.0 | 0.00 | 0.00 | 0.00 | 86 | 1012.4 |
| 20260504100540 | 60 | 195 | 5.0 | 7.0 | 0.00 | 0.00 | 0.00 | 82 | 1013.1 |
| 20260504081933 | 62 | 184 | 6.0 | 8.0 | 0.00 | 0.00 | 0.00 | 77 | 1013.5 |
| 20260504081430 | 62 | 199 | 9.0 | 11.0 | 0.00 | 0.00 | 0.00 | 77 | 1013.5 |
| 20260504080926 | 62 | 171 | 5.0 | 7.0 | 0.00 | 0.00 | 0.00 | 76 | 1013.8 |
| 20260504080423 | 62 | 194 | 6.0 | 7.0 | 0.00 | 0.00 | 0.00 | 76 | 1013.8 |